Weather in Karatau

Kazakhstan     43˚10′46″N   70˚27′55″E
temp.,
°C
wind,
m/s
gust,
m/s
humid.,
%
clouds,
%
prec.,
mm/h
press.,
hPa
HPBL,
m
28 november, sat
sat2800:00+7˚sw91878100 0.2 1022471
03:00+3˚wsw4871100 0.5 1023201
06:00+3˚sw12208299 2.4 1028692
09:00+1˚wsw14207897 2.9 1034777
12:00+1˚wsw13177361 3.1 10381099
15:00+1˚wsw1117798 0.2 10401380
18:00−1˚wsw6138115 0.3 1043483
21:00−2˚w613763 0.0 1044396
29 november, sun
sun2900:00−3˚w24831 0.0 104476
03:00−4˚sse12860 0.0 104421
06:00−5˚nne01885 0.0 104521
09:00−4˚ne119486 0.1 1045103
12:00−3˚ese128192 0.2 1044476
15:00−2˚e127398 0.0 1042652
18:00−4˚e128097 0.0 104336
21:00−5˚ene238683 0.0 104298
30 november, mon
mon3000:00−6˚ne128878 0.0 104240
03:00−6˚ene118879 0.0 104191
06:00−7˚e128989 0.1 1040117
09:00−7˚e129084 0.0 104077
12:00−4˚e247878 0.0 1039464
15:00−1˚e356269 0.0 1036740
18:00−4˚e477738 0.0 1036131
21:00−6˚e368667 0.0 1035203
1 december, tue
tue100:00−6˚ese229083 0.0 103346
03:00−7˚e1289100 0.0 103255
06:00−7˚e2288100 0.0 103075
09:00−7˚e1283100 0.0 1031160
12:00−5˚e2273100 0.0 1030366
15:00−3˚se3366100 0.0 1029358
18:00−3˚ese3475100 0.1 1030201
21:00−3˚se3495100 1.2 1030119
2 december, wed
wed200:00−1˚ese3496100 1.5 1030120
03:00ese2388100 0.3 103080
06:00se3389100 0.3 103067
09:00+1˚se2376100 0.0 103050
12:00+3˚se2264100 0.0 1029139
15:00+5˚se236393 0.0 1028186
18:00+2˚se227496 0.0 102823
21:00sse127980 0.0 102822